Location: Unspecified
(0.0000°N, 0.0000°E)
Time: 21:13:28
(UTC+00:00)

N. Korean satellite - Pass Details

Date: 07 August 2021
Orbit: 449 x 498 km, 97.3° (Epoch: 25 September)

Event Time Altitude Azimuth Distance (km) Brightness Sun altitude
Rises 04:26:40 0° 29° (NNE) 2,457 10.8 -23.7°
Reaches altitude 10° 04:28:55 10° 42° (NE) 1,581 10.0 -23.2°
Maximum altitude 04:31:48 26° 101° (E) 916 8.5 -22.5°
Drops below altitude 10° 04:34:41 10° 160° (SSE) 1,577 9.2 -21.8°
Enters shadow 04:34:59 - 162° (SSE) 1,686 9.3 -21.7°
